Location: *
(55.6049°S, 142.1985°W)
Time: 00:23:08
(UTC+00:00)

RESURS DK-1 - Pass Details

Date: 12 May 2021
Orbit: 553 x 564 km, 69.9° (Epoch: 18 June)

Event Time Altitude Azimuth Distance (km) Brightness Sun altitude
Exits shadow 15:36:27 13° 214° (SW) 1,687 4.4 -13.5°
Maximum altitude 15:37:33 14° 197° (SSW) 1,625 4.4 -13.3°
Drops below altitude 10° 15:39:52 10° 164° (SSE) 1,885 5.1 -13.0°
Sets 15:43:03 0° 138° (SE) 2,782 6.3 -12.6°
